#timestamp,LO_Frequency,Hit,StdDev 
1622869215.9,286047002.1,N
1622869235.7,286047002.4,N
1622869255.6,286046999.7,N
1622869275.4,286047000.9,N
1622869295.3,286046996.6,N
1622869315.1,286046998.1,N
1622869316.0,286046998.1,N
1622869335.8,286047000.9,N
1622869355.7,286047000.3,N
1622869375.5,286047002.8,N
1622869395.3,286046999.0,N
1622869415.2,286047001.0,N
1622869435.0,286047000.2,N
1622869435.9,286047000.2,N
1622869455.8,286047000.4,N
1622869475.6,286047000.8,N
1622869495.4,286047000.8,N
1622869515.3,286046999.4,N
1622869535.1,286046999.2,N
1622869555.9,286046998.8,N
1622869575.7,286047000.7,N
1622869595.5,286046998.8,N
1622869615.4,286046997.1,N
1622869635.2,286046999.6,N
1622869655.0,286046997.7,N
1622869655.9,286046997.7,N
1622869675.8,286046996.9,N
1622869695.6,286046997.1,N
1622869715.5,286046999.1,N
1622869735.3,286046998.3,N
1622869755.1,286047001.0,N
1622869775.9,286046997.0,N
1622869795.7,286046996.9,N
1622869815.5,286046996.5,N
1622869835.4,286046999.7,N
1622869855.2,286047000.6,N
1622869875.1,286046998.4,N
1622869876.0,286046998.4,N
1622869895.8,286047001.0,N
1622869915.6,286047001.0,N
1622869935.5,286047000.7,N
1622869955.3,286047002.0,N
1622869975.1,286047004.2,N
1622869995.9,286047001.4,N
1622870015.7,286047000.6,N
1622870035.6,286047001.2,N
1622870055.4,286047002.4,N
1622870075.2,286047001.0,N
1622870095.1,286047000.0,N
1622870096.0,286047000.0,N
1622870115.8,286046999.9,N
1622870135.6,286046998.1,N
1622870155.5,286046996.9,N
1622870175.3,286046996.8,N
1622870195.2,286046997.6,N
1622870215.9,286046997.4,N
1622870235.7,286046996.9,N
1622870255.6,286046999.6,N
1622870275.4,286046996.7,N
1622870295.2,286047000.7,N
1622870315.1,286046999.4,N
1622870316.0,286046999.4,N
1622870335.8,286046999.0,N
1622870355.7,286046998.5,N
1622870375.5,286046998.1,N
1622870395.3,286047000.3,N
1622870415.2,286047000.1,N
1622870435.0,286047000.7,N
1622870435.9,286047000.7,N
1622870455.7,286047002.1,N
1622870475.6,286047004.2,N
1622870495.4,286047001.9,N
1622870515.3,286047001.7,N
1622870535.1,286047000.4,N
1622870536.0,286047000.4,N
1622870555.8,286047001.9,N
1622870575.7,286047004.3,N
1622870595.5,286047002.2,N
1622870615.3,286047001.4,N
1622870635.2,286046999.7,N
1622870655.0,286047000.3,N
1622870655.9,286047000.3,N
1622870675.8,286047000.5,N
1622870695.6,286047000.5,N
1622870715.4,286047003.9,N
1622870735.3,286047002.7,N
1622870755.1,286046993.9,Y
1622870775.9,286046995.0,P
1622870795.7,286046995.3,N
1622870815.5,286046998.0,N
1622870835.4,286046997.6,N
1622870855.2,286046996.8,N
1622870875.0,286046994.9,N
1622870875.9,286046994.9,N
1622870895.8,286046999.0,N
1622870915.6,286046998.3,N
1622870935.5,286046998.1,N
1622870955.3,286047001.2,N
1622870975.1,286047000.8,N
1622870995.9,286046998.3,N
1622871015.7,286047000.6,N
1622871035.5,286046999.9,N
1622871055.4,286046999.1,N
1622871075.2,286046998.1,N
1622871095.0,286046999.0,N
1622871096.0,286046999.0,N
1622871115.8,286046996.8,N
1622871135.6,286047000.3,N
1622871155.5,286047001.1,N
1622871175.3,286047000.5,N
1622871195.1,286046999.2,N
1622871215.9,286046999.4,N
1622871235.7,286046995.0,N
1622871255.5,286046996.8,N
1622871275.4,286046995.2,N
1622871295.2,286046996.4,N
1622871315.1,286046996.2,N
1622871316.0,286046996.2,N
1622871335.8,286046994.4,N
1622871355.6,286046993.7,Y
1622871375.5,286046995.3,P
1622871395.3,286046995.8,P
1622871415.1,286046997.7,N
1622871435.9,286046996.8,N
1622871455.7,286046999.4,N
1622871475.6,286046997.2,N
1622871495.4,286046997.6,N
1622871515.2,286046996.0,Y
1622871535.1,286047000.9,P
1622871536.0,286047000.9,N
1622871555.8,286047000.5,N
1622871575.6,286047001.7,N
1622871595.5,286047001.4,N
1622871615.3,286047002.4,N
1622871635.2,286047002.0,N
1622871655.9,286047001.7,N
1622871675.7,286047003.6,N
1622871695.6,286047001.6,N
1622871715.4,286047004.0,N
1622871735.2,286047004.1,N
1622871755.1,286047003.8,N
1622871756.0,286047003.8,N
1622871775.8,286047003.5,N
1622871795.7,286047003.2,N
1622871815.5,286047005.5,Y
1622871835.3,286047001.0,P
1622871855.2,286046998.3,P
1622871875.9,286046998.2,N
1622871895.7,286047002.6,N
1622871915.6,286047004.8,N
1622871935.4,286047001.7,N
1622871955.2,286046999.7,N
1622871975.1,286047003.4,N
1622871976.0,286047003.4,N
1622871995.8,286047003.9,N
1622872015.7,286047003.5,N
1622872035.5,286047004.3,N
1622872055.3,286047000.2,N
1622872075.2,286046998.6,N
1622872095.0,286047000.8,N
1622872095.9,286047000.8,N
1622872115.8,286047002.8,N
1622872135.6,286047002.6,N
1622872155.4,286046998.4,N
1622872175.3,286046999.5,N
1622872195.1,286046997.0,N
1622872215.8,286047000.7,N
1622872235.7,286046998.8,N
1622872255.5,286047002.4,N
1622872275.4,286047002.3,N
1622872295.2,286047000.6,N
1622872315.0,286047001.6,N
1622872315.9,286047001.6,N
1622872335.8,286047000.3,N
1622872355.6,286047002.4,N
1622872375.4,286046998.9,N
1622872395.3,286047000.8,N
1622872415.1,286047000.0,N
1622872435.9,286047002.7,N
1622872455.7,286046998.2,N
1622872475.5,286047000.1,N
1622872495.4,286046999.8,N
1622872515.2,286047001.9,N
1622872535.0,286047001.6,N
1622872535.9,286047001.6,N
1622872555.8,286047001.6,N
1622872575.6,286047003.7,N
1622872595.5,286047005.2,Y
1622872615.3,286047002.3,P
1622872635.1,286047001.9,N
1622872655.9,286046998.1,N
1622872675.7,286046999.7,N
1622872695.5,286047002.8,N
1622872715.4,286047000.1,N
1622872735.2,286047003.6,N
1622872755.1,286047001.9,N
1622872756.0,286047001.9,N
1622872775.8,286047002.6,N
1622872795.6,286047000.5,N
